EW7348 Weather Reports


time (UTC)temp
C
wind
direction
speed
KPH
gust
KPH
rain 1hr
cm
rain 24hr
cm
rain mn
cm
humidity
%
barometer
mb
20260506201719 11 270 4.8 8.0 0.00 1.42 1.35 100 1008.4
20260506200718 11 263 4.8 6.4 0.00 1.42 1.35 100 1008.4
20260506195719 11 245 4.8 8.0 0.00 1.42 1.35 100 1008.5
20260506194717 11 264 6.4 9.7 0.00 1.42 1.35 100 1008.5
20260506193717 12 258 6.4 9.7 0.00 1.42 1.35 100 1008.5
20260506192719 12 265 8.0 11.3 0.00 1.42 1.35 100 1008.4
20260506191818 13 264 6.4 8.0 0.00 1.42 1.35 100 1008.4
20260506190816 14 253 3.2 6.4 0.00 1.45 1.35 100 1008.4
20260506185817 14 251 4.8 6.4 0.03 1.45 1.35 100 1008.4
20260506184817 15 254 4.8 8.0 0.03 1.45 1.35 100 1008.2
20260506183817 15 180 0.0 1.6 0.05 1.45 1.35 100 1008.2
20260506182816 15 180 1.6 3.2 0.10 1.45 1.35 100 1008.1
20260506181816 15 180 3.2 4.8 0.10 1.45 1.35 100 1008.2
20260506175918 14 180 1.6 4.8 0.13 1.42 1.32 100 1008.4
20260506174916 14 180 0.0 3.2 0.18 1.42 1.32 100 1008.5
20260506173916 14 191 3.2 6.4 0.18 1.40 1.30 100 1008.4
20260506172915 14 225 0.0 1.6 0.20 1.37 1.24 100 1008.6
20260506171917 13 264 0.0 1.6 0.20 1.35 1.24 100 1008.5
20260506171818 13 195 1.6 3.2 0.20 1.35 1.24 100 1008.5
20260506170816 13 220 1.6 4.8 0.23 1.32 1.22 100 1008.7
20260506165818 13 185 0.0 1.6 0.20 1.27 1.17 100 1008.6
20260506163915 13 180 3.2 4.8 0.20 1.22 1.12 100 1009.0
20260506162016 13 180 8.0 11.3 0.20 1.14 1.04 100 1009.1
20260506161115 13 180 6.4 8.0 0.20 1.12 1.02 100 1008.9
20260506160118 13 180 4.8 11.3 0.20 1.09 0.99 100 1009.1
20260506155216 13 184 1.6 4.8 0.23 1.07 0.97 100 1009.2
20260506154218 13 180 4.8 9.7 0.23 1.04 0.94 100 1009.2
20260506153315 13 180 1.6 9.7 0.25 1.02 0.89 100 1009.5
20260506152316 12 180 0.0 0.0 0.28 0.97 0.86 100 1009.6
20260506150315 12 180 0.0 3.2 0.30 0.91 0.79 100 1009.8
20260506145316 12 180 0.0 0.0 0.33 0.89 0.71 100 1009.9
20260506144317 12 180 0.0 4.8 0.30 0.84 0.71 100 1010.1
20260506143316 12 180 0.0 3.2 0.30 0.79 0.66 100 1010.3
20260506142415 12 180 1.6 3.2 0.28 0.71 0.58 100 1010.5
20260506141416 12 180 4.8 6.4 0.20 0.66 0.53 100 1010.3
20260506140415 12 180 4.8 8.0 0.18 0.61 0.48 100 1010.5
20260506135415 12 180 0.0 0.0 0.18 0.58 0.43 100 1010.5
20260506134416 12 180 0.0 3.2 0.13 0.53 0.41 100 1010.6
20260506133416 12 180 0.0 1.6 0.13 0.51 0.36 100 1010.4
20260506132415 12 180 0.0 1.6 0.10 0.46 0.33 100 1010.1
20260506131416 12 180 0.0 0.0 0.13 0.46 0.33 100 1010.1
20260506130416 11 180 0.0 1.6 0.15 0.43 0.30 100 1010.3
20260506125415 11 180 0.0 1.6 0.15 0.41 0.28 100 1010.1
20260506124416 11 180 0.0 0.0 0.15 0.41 0.28 100 1010.3
20260506123416 11 180 0.0 0.0 0.15 0.38 0.25 100 1010.5
20260506121416 11 180 0.0 0.0 0.13 0.33 0.18 100 1010.7
20260506120415 11 180 0.0 0.0 0.10 0.28 0.15 100 1010.7
20260506115515 11 270 3.2 3.2 0.08 0.25 0.13 100 1011.1
20260506114615 11 270 0.0 0.0 0.08 0.25 0.13 100 1011.0
20260506113615 10 247 0.0 0.0 0.05 0.23 0.10 100 1010.7
20260506112616 10 247 0.0 0.0 0.05 0.23 0.08 100 1010.7
20260506111616 10 180 0.0 0.0 0.03 0.20 0.08 100 1010.6
20260506110616 10 180 0.0 0.0 0.03 0.18 0.05 100 1010.6
20260506105715 10 180 0.0 0.0 0.03 0.18 0.05 100 1010.6
20260506104716 10 180 0.0 0.0 0.03 0.18 0.05 100 1010.5
20260506102814 10 234 0.0 1.6 0.03 0.18 0.05 100 1010.6
20260506101831 10 185 3.2 6.4 0.03 0.18 0.05 100 1010.6
20260506100817 10 180 0.0 3.2 0.00 0.15 0.03 100 1010.4
20260506094814 10 180 1.6 3.2 0.00 0.15 0.03 100 1010.3
20260506092816 10 180 0.0 3.2 0.00 0.15 0.03 100 1010.2
20260506091814 10 270 0.0 0.0 0.00 0.15 0.03 100 1010.2
20260506090815 10 247 0.0 0.0 0.00 0.15 0.03 100 1010.2
20260506085816 10 247 0.0 0.0 0.00 0.15 0.03 100 1010.4
20260506084815 10 247 0.0 0.0 0.00 0.15 0.03 100 1010.5
20260506083815 10 180 0.0 0.0 0.00 0.15 0.03 100 1010.4
20260506082814 10 247 0.0 0.0 0.00 0.15 0.03 100 1010.7
20260506081815 10 247 0.0 0.0 0.00 0.15 0.03 100 1010.7
20260506080814 10 247 0.0 0.0 0.00 0.15 0.03 100 1011.0
20260506072815 10 247 0.0 0.0 0.00 0.15 0.03 100 1011.5
20260506070814 11 247 0.0 0.0 0.00 0.15 0.03 100 1011.6
20260506061816 11 270 0.0 0.0 0.00 0.15 0.03 100 1011.8
20260506060816 11 270 0.0 1.6 0.00 0.15 0.03 100 1011.7
20260506051014 11 248 3.2 3.2 0.03 0.15 0.03 100 1011.7
20260506045013 11 254 3.2 8.0 0.00 0.13 0.00 100 1012.0
20260506044012 11 270 4.8 6.4 0.00 0.13 0.00 100 1012.0
20260506043014 12 247 1.6 4.8 0.00 0.13 0.00 100 1012.3
20260506042016 12 251 1.6 4.8 0.00 0.13 0.00 100 1012.1
20260506041014 12 268 6.4 9.7 0.00 0.13 0.00 100 1012.3
20260506040114 12 258 6.4 11.3 0.00 0.13 0.00 100 1012.6
20260506035207 12 258 4.8 6.4 0.00 0.13 0.13 100 1012.3
20260506032405 13 270 11.3 14.5 0.00 0.13 0.13 100 1012.3
20260506025507 13 269 8.0 12.9 0.00 0.13 0.13 100 1012.2
20260506024507 14 256 4.8 6.4 0.00 0.13 0.13 100 1012.1
20260506023605 14 261 8.0 16.1 0.00 0.13 0.13 100 1012.0
20260506022607 15 260 3.2 6.4 0.00 0.13 0.13 100 1012.0
20260506021706 15 253 8.0 16.1 0.00 0.13 0.13 100 1011.9
20260506015706 13 270 0.0 1.6 0.00 0.13 0.13 100 1011.7
20260506014707 13 180 0.0 0.0 0.00 0.13 0.13 100 1011.5
20260506013806 13 180 0.0 0.0 0.00 0.13 0.13 100 1011.5
20260506012806 14 180 0.0 0.0 0.03 0.13 0.13 100 1010.9
20260506011808 14 180 0.0 0.0 0.03 0.13 0.13 100 1010.8
20260506010805 14 180 0.0 0.0 0.03 0.13 0.13 100 1010.5
20260506005806 14 180 0.0 0.0 0.03 0.13 0.13 100 1010.4
20260506003906 14 180 0.0 1.6 0.03 0.13 0.13 100 1010.4
20260506002907 14 180 0.0 0.0 0.00 0.10 0.10 100 1010.6
20260506001907 14 180 0.0 0.0 0.00 0.10 0.10 100 1010.3
20260506001005 14 180 0.0 0.0 0.00 0.10 0.10 100 1010.0
20260506000104 14 180 0.0 4.8 0.00 0.10 0.10 100 1009.9
20260505235107 14 180 0.0 0.0 0.00 0.10 0.10 100 1009.9
20260505234206 15 180 0.0 0.0 0.00 0.10 0.10 100 1009.8
20260505233208 15 180 0.0 0.0 0.00 0.10 0.10 100 1009.7
20260505232206 15 180 0.0 0.0 0.00 0.10 0.10 100 1009.6
20260505231206 15 180 0.0 0.0 0.00 0.10 0.10 100 1009.4
20260505230204 15 180 3.2 3.2 0.00 0.10 0.10 100 1009.2
20260505225207 15 180 0.0 0.0 0.03 0.10 0.10 100 1009.2
20260505224305 15 180 0.0 0.0 0.05 0.10 0.10 100 1009.3
20260505223306 15 180 0.0 0.0 0.05 0.10 0.10 100 1009.3
20260505221405 15 264 0.0 1.6 0.05 0.10 0.10 100 1009.7
20260505220405 15 252 3.2 8.0 0.05 0.10 0.10 100 1010.0
20260505215406 15 263 4.8 9.7 0.03 0.08 0.08 100 1010.2
20260505213406 16 257 12.9 20.9 0.00 0.05 0.05 100 1010.5
20260505212405 17 242 9.7 16.1 0.00 0.05 0.05 100 1009.8
20260505211406 17 182 8.0 17.7 0.00 0.05 0.05 100 1008.9
20260505205407 18 222 9.7 16.1 0.00 0.05 0.05 100 1008.6
20260505204503 19 252 11.3 20.9 0.00 0.05 0.05 100 1009.0
20260505203506 21 261 12.9 20.9 0.00 0.05 0.05 100 1008.3
20260505202503 21 187 4.8 8.0 0.00 0.05 0.05 100 1007.4